Location: ??????
(41.3747°N, 22.5491°E)
Time: 15:01:49
(UTC+00:00)

USA 238 DEB - Pass Details

Date: 01 December 2020
Orbit: 997 x 1215 km, 63.4° (Epoch: 11 January)

Event Time Altitude Azimuth Distance (km) Brightness Sun altitude
Rises 17:01:06 0° 212° (SSW) 3,709 7.2 -22.0°
Reaches altitude 10° 17:03:39 10° 212° (SSW) 2,774 6.4 -22.4°
Maximum altitude 17:10:10 89° 121° (ESE) 1,037 3.5 -23.6°
Enters shadow 17:13:09 37° 35° (NE) 1,580 4.2 -24.2°
